Dewpoint
54 52 50 52 49 50 49 50 53 53 52 50 50 50 50 48 48 49 48 48 47 44
54 53 50 52 53 51 52 49 53 53 52 51 50 50 50 48 48 48 48 48 47 45
52 52 53 54 53 52 53 53 51 52 51 50 50 50 49 48 47 47 46 44 44 44
52 52 53 52 52 52 53 52 50 50 50 49 49 49 49 48 46 45 45 44 43 41
52 52 52 51 51 52 51 50 49 49 49 48 47 48 48 47 44 44 43 43 41 39
51 51 50 49 49 49 47 47 47 46 47 46 47 46 46 46 45 43 42 41 39 39
50 49 48 47 46 46 45 44 44 46 46 46 45 45 45 44 44 42 40 39 38 37
48 47 46 46 45 44 45 44 44 44 45 45 44 43 44 43 42 41 39 39 37 37
45 43 44 45 46 45 44 44 44 44 43 43 42 36 37 40 42 39 38 37 36 35
44 43 44 44 43 43 43 44 45 44 44 43 42 35 36 36 40 38 38 37 36 33
43 43 43 43 42 41 41 39 38 39 40 40 37 35 35 36 38 38 37 37 35 33
40 37 37 35 35 35 36 35 34 35 35 37 37 35 35 36 36 35 35 33 32 31
36 35 35 35 35 35 35 35 36 34 34 35 34 34 35 36 35 33 32 31 29 25
36 35 35 35 36 34 34 34 33 34 34 34 34 34 33 34 35 34 31 30 29 27
Lifted_Index
-0 0 1 1 1 1 1 2 2 2 3 3 4 4 4 4 4 4 4 4 4 5
-0 -0 0 0 0 1 1 1 2 2 2 3 3 4 4 4 4 4 4 4 4 5
-0 -0 -0 -0 0 0 0 1 2 2 2 3 3 3 3 3 3 3 4 4 5 5
-0 -0 -0 0 0 0 1 1 1 2 2 2 2 2 2 2 3 3 3 4 4 5
-0 0 0 0 1 1 1 1 1 2 2 2 2 2 1 2 2 3 3 3 4 4
0 0 1 1 1 2 2 2 2 2 1 1 1 1 1 2 2 3 3 3 3 4
1 1 2 2 3 3 2 2 2 1 1 1 1 1 1 2 2 3 3 3 3 4
2 3 3 3 3 3 3 2 2 2 2 2 2 2 2 3 3 3 3 3 4 4
3 4 4 4 4 4 3 3 3 3 3 3 3 3 3 3 3 3 3 4 4 5
4 5 5 5 5 5 5 5 4 4 4 4 4 4 4 4 4 4 4 5 5 6
5 5 5 6 6 6 6 6 6 6 5 5 5 4 5 5 5 5 6 6 7 7
6 6 6 6 7 7 7 7 7 6 6 5 5 5 6 6 6 7 7 7 8 9
6 6 7 7 7 7 7 6 6 6 6 6 6 6 7 7 8 8 8 9 10 10
5 6 7 7 7 6 6 6 5 5 6 6 7 7 8 8 8 9 9 10 10 11